COSMOS 2251 DEB, 34040

Orbit data source: Space-Track

COSMOS 2251 DEB, 34040 is space debris in LEO originally from a launch on Wed, 16 Jun 1993 UTC launched from the Plesetsk Missile And Space Complex (PKMTR). The debris from Iridium 33, an American commercial communications satellite, has been tracked extensively since its accidental collision with the defunct Russian satellite Cosmos 2251 in 2009. This event, occurring at high speed in low Earth orbit (LEO), generated thousands of pieces of space debris, significantly increasing the risk of further collisions. The Iridium 33 debris cloud has impacted space traffic management and orbital debris mitigation strategies, making it a subject of ongoing study in space situational awareness.

Loading next visibility...
Identifier
34040, 1993-036JB
Orbit
LEO
Country
Flag of CISCIS
Related business
Manufacturer
Unknown
Mission
Spacecraft
Bus & Motor
Unknown
Mass
Unknown
Launch date (UTC)
1993-06-16 (33 years ago)
Launch vehicle
Unknown
Launch site
Plesetsk Missile And Space Complex (PKMTR)
Object type
Payload
Rocket body
Debris
Shape & HBR
Unknown shape, 0.1 m
Radar Cross Section
Medium (>0.1 m² and <1 m²)

Expand to show TLE details & history
Last TLE update: 16 hours ago

TLE from 16 hours ago
0 COSMOS 2251 DEB
1 34040U 93036JB  26235.78740226  .00001711  00000-0  13479-2 0  9992
2 34040  73.9586   5.7736 0336378 269.3114  86.9456 13.69171020870761
Epoch: 2026-08-23T18:53Z
TLE epoch observation values (Epoch: 2026-08-23T18:53:51.555Z)
Latitude
-0.00001°
Longitude
110.23034°
Altitude
1,000.191 km
Speed
7.354 km/s
True Right ascension
00h 23m 05s
True Declination
0° 00' 00"
Sunlit
Object was in full shadow at epoch
Visualization orbit readout
Latitude
Unknown
Longitude
Unknown
Altitude
Unknown
Speed
Unknown
Apparent Right ascension
Unknown
Apparent Declination
Unknown
Sunlit
N/A
Visualization observer readout
Local Sidereal Time
02:09:43
Azimuth
Unknown
Elevation
Unknown
Doppler factor
Unknown
Orbital elements
Apogee altitude
1,248.442 km
Perigee altitude
752.057 km
Semi-major axis
7,378.387 km
Eccentricity
0.03364
Inclination
73.9586°
RAAN
5.7736°
Arg. of periapsis
269.3114°
True anomaly
90.80046°
Mean anomaly
86.9456°
Eccentric anomaly
88.87253°
Mean motion
3.42453 °/min
Orbital period
105.12 mins
BSTAR
0.0013479
Loading maneuver chart data...
Computing Atmospheric mass density...

Documentation

Showing up to 5 results
|